EW0822 Weather Reports


time (UTC)temp
C
wind
direction
speed
KPH
gust
KPH
rain 1hr
cm
rain 24hr
cm
rain mn
cm
humidity
%
barometer
mb
20260508200018 13 121 0.0 0.0 0.00 0.00 0.00 69 1017.8
20260508194518 13 121 0.0 0.0 0.00 0.00 0.00 67 1017.6
20260508193017 14 121 0.0 0.0 0.00 0.00 0.00 62 1017.5
20260508191517 15 121 0.0 0.0 0.00 0.00 0.00 59 1017.3
20260508190023 16 121 0.0 0.0 0.00 0.00 0.00 54 1017.1
20260508184516 16 121 0.0 0.0 0.00 0.00 0.00 51 1017.0
20260508183016 17 121 0.0 0.0 0.00 0.00 0.00 48 1016.8
20260508181514 17 121 0.0 0.0 0.00 0.00 0.00 48 1016.7
20260508180019 17 121 0.0 0.0 0.00 0.00 0.00 45 1016.6
20260508174513 17 123 0.0 0.0 0.00 0.00 0.00 46 1016.5
20260508173013 18 178 0.0 0.0 0.00 0.00 0.00 46 1016.5
20260508171514 18 111 0.0 0.0 0.00 0.00 0.00 45 1016.4
20260508170011 18 65 0.0 0.0 0.00 0.00 0.00 43 1016.4
20260508164513 18 284 0.0 0.0 0.00 0.00 0.00 44 1016.3
20260508163009 18 259 0.0 0.0 0.00 0.00 0.00 43 1016.4
20260508161508 18 205 0.0 0.0 0.00 0.00 0.00 43 1016.4
20260508160012 18 208 0.0 4.8 0.00 0.00 0.00 44 1016.5
20260508154506 18 5 0.0 0.0 0.00 0.00 0.00 44 1016.5
20260508153006 18 355 0.0 0.0 0.00 0.00 0.00 44 1016.6
20260508151502 17 355 0.0 0.0 0.00 0.00 0.00 45 1016.7
20260508150100 17 257 0.0 0.0 0.00 0.00 0.00 47 1016.7
20260508144558 17 60 0.0 0.0 0.00 0.00 0.00 50 1016.8
20260508143108 17 192 0.0 0.0 0.00 0.00 0.00 52 1016.9
20260508141605 17 44 0.0 1.6 0.00 0.00 0.00 50 1017.1
20260508140056 16 204 0.0 0.0 0.00 0.00 0.00 53 1017.1
20260508134555 16 40 0.0 4.8 0.00 0.00 0.00 53 1017.1
20260508133100 16 50 0.0 0.0 0.00 0.00 0.00 50 1017.1
20260508131554 17 47 0.0 0.0 0.00 0.00 0.00 49 1017.2
20260508130057 17 47 0.0 0.0 0.00 0.00 0.00 49 1017.3
20260508124556 17 63 0.0 0.0 0.00 0.00 0.00 51 1017.3
20260508123052 17 57 0.0 0.0 0.00 0.00 0.00 50 1017.4
20260508121603 17 55 0.0 0.0 0.00 0.00 0.00 50 1017.3
20260508120050 17 54 0.0 0.0 0.00 0.00 0.00 51 1017.3
20260508114549 17 54 0.0 0.0 0.00 0.00 0.00 50 1017.3
20260508113049 17 54 0.0 0.0 0.00 0.00 0.00 50 1017.3
20260508111547 17 54 0.0 0.0 0.00 0.00 0.00 53 1017.3
20260508110052 16 53 0.0 0.0 0.00 0.00 0.00 53 1017.3
20260508104546 17 53 0.0 0.0 0.00 0.00 0.00 53 1017.4
20260508103046 17 103 0.0 6.4 0.00 0.00 0.00 54 1017.5
20260508101543 17 25 0.0 1.6 0.00 0.00 0.00 57 1017.5
20260508100040 17 33 0.0 0.0 0.00 0.00 0.00 60 1017.6
20260508094538 16 57 0.0 4.8 0.00 0.00 0.00 61 1017.7
20260508093033 15 60 0.0 0.0 0.00 0.00 0.00 65 1017.7
20260508091528 15 66 0.0 0.0 0.00 0.00 0.00 69 1017.8
20260508090024 14 49 0.0 0.0 0.00 0.00 0.00 73 1017.9
20260508084523 13 46 0.0 1.6 0.00 0.00 0.00 73 1017.9
20260508083114 13 75 0.0 0.0 0.00 0.00 0.00 76 1017.9
20260508081510 12 41 0.0 4.8 0.00 0.00 0.00 76 1017.9
20260508080007 12 65 0.0 0.0 0.00 0.00 0.00 78 1017.9
20260508074501 11 74 0.0 6.4 0.00 0.00 0.00 79 1018.0
20260508073101 11 61 0.0 4.8 0.00 0.00 0.00 79 1017.9
20260508071558 10 74 0.0 1.6 0.00 0.00 0.00 80 1017.9
20260508070058 10 46 0.0 6.4 0.00 0.00 0.00 80 1017.8
20260508064606 10 48 0.0 8.0 0.00 0.00 0.00 79 1017.7
20260508063048 9 51 0.0 6.4 0.00 0.00 0.00 79 1017.6
20260508061544 9 51 0.0 8.0 0.00 0.00 0.00 79 1017.5
20260508060041 8 51 0.0 1.6 0.00 0.00 0.00 78 1017.4
20260508054540 8 51 0.0 6.4 0.00 0.00 0.00 77 1017.4
20260508053039 8 57 0.0 0.0 0.00 0.00 0.00 77 1017.3
20260508051537 8 55 0.0 1.6 0.00 0.00 0.00 76 1017.1
20260508050044 8 55 0.0 0.0 0.00 0.00 0.00 75 1017.0
20260508044534 7 55 0.0 0.0 0.00 0.00 0.00 75 1017.0
20260508043035 7 54 0.0 0.0 0.00 0.00 0.00 75 1016.9
20260508041530 7 54 0.0 0.0 0.00 0.00 0.00 75 1016.9
20260508040024 7 53 0.0 0.0 0.00 0.00 0.00 75 1016.9
20260508034525 7 42 0.0 0.0 0.00 0.00 0.00 75 1016.9
20260508033030 7 41 0.0 0.0 0.00 0.00 0.00 75 1016.8
20260508031523 7 36 0.0 3.2 0.00 0.00 0.00 75 1016.9
20260508030023 7 26 0.0 0.0 0.00 0.00 0.00 75 1016.8
20260508024527 7 26 0.0 6.4 0.00 0.00 0.00 75 1016.8
20260508023032 7 9 0.0 0.0 0.00 0.00 0.00 75 1016.8
20260508021522 7 9 0.0 0.0 0.00 0.00 0.00 75 1016.8
20260508020022 7 9 0.0 0.0 0.00 0.00 0.00 76 1016.7
20260508014527 7 9 0.0 0.0 0.00 0.00 0.00 76 1016.6
20260508013018 7 9 0.0 0.0 0.00 0.00 0.00 76 1016.7
20260508011520 7 5 0.0 3.2 0.00 0.00 0.00 76 1016.7
20260508010020 7 355 0.0 0.0 0.00 0.00 0.00 76 1016.6
20260508004516 7 355 0.0 0.0 0.00 0.00 0.00 76 1016.6
20260508003015 7 355 0.0 0.0 0.00 0.00 0.00 76 1016.7
20260508001513 7 355 0.0 0.0 0.00 0.00 0.00 77 1016.7
20260508000012 7 355 0.0 0.0 0.00 0.00 0.00 77 1016.8
20260507234515 7 355 0.0 0.0 0.00 0.00 0.00 77 1016.8
20260507233009 7 355 0.0 0.0 0.00 0.00 0.00 78 1016.9
20260507231508 7 355 0.0 0.0 0.00 0.00 0.00 79 1016.9
20260507230006 7 355 0.0 0.0 0.00 0.00 0.00 79 1016.8
20260507224508 8 355 0.0 0.0 0.00 0.00 0.00 80 1016.7
20260507223100 8 355 0.0 0.0 0.00 0.00 0.00 80 1016.7
20260507221559 8 355 0.0 0.0 0.00 0.00 0.00 80 1016.7
20260507220056 9 355 0.0 0.0 0.00 0.00 0.00 80 1016.7
20260507214607 10 355 0.0 0.0 0.00 0.00 0.00 79 1016.5
20260507213106 10 355 0.0 0.0 0.00 0.00 0.00 78 1016.4
20260507211553 11 355 0.0 0.0 0.00 0.00 0.00 75 1016.4
20260507210054 11 355 0.0 0.0 0.00 0.00 0.00 74 1016.4
20260507204600 11 355 0.0 0.0 0.00 0.00 0.00 72 1016.3
20260507203049 12 355 0.0 0.0 0.00 0.00 0.00 72 1016.2
20260507201548 12 355 0.0 0.0 0.00 0.00 0.00 70 1016.1